Location: *
(49.6619°S, 177.4603°W)
Time: 12:30:08
(UTC+00:00)

Cosmos 1076 Rocket - Pass Details

Date: 31 January 2023
Orbit: 587 x 612 km, 82.5° (Epoch: 29 March)

Event Time Altitude Azimuth Distance (km) Brightness Sun altitude
Rises 08:26:19 0° 191° (S) 2,874 7.8 -7.6°
Reaches altitude 10° 08:28:33 10° 190° (S) 1,967 6.9 -7.9°
Maximum altitude 08:32:54 88° 275° (W) 615 3.6 -8.5°
Drops below altitude 10° 08:37:15 10° 7° (N) 1,954 5.7 -9.0°
Enters shadow 08:38:25 - 7° (N) 2,427 6.2 -9.1°
